Find Kosmos-1867

NORAD ID: 18187 Int'l Des: 1987-060 Owner: VMF Country: SU operational
LEOCIRCULAR

Live Position

Loading 3D Globe...

About Kosmos-1867

Description loading...

Upcoming Passes

Passes for default location (London). Set your location on the main map for personalized predictions.

Altitude History

Loading altitude history...

Two-Line Element Set

1 18187U 87060A 26107.00476435 -.00000072 00000-0 10640-4 0 9996
2 18187 65.0108 199.4014 0015211 280.6796 79.2576 14.31508750 25426
Epoch: Apr 17, 2026 • Age: 14 hours

Current Status

Altitude 802.7 km
Velocity 7.45 km/s
Sub-Earth Point 46.68°N, 69.18°W
Launch Date Jul 10, 1987
Age 38.7 years
Type other

Technical Details

Classification Payload
Mass 980.00 kg
Dry Mass 980.00 kg
Total Mass 3550.00 kg
Length 9.30 m
Diameter 1.30 m
Span 16.50 m
Shape Cyl + Ant
Manufacturer ARSL/KOMET
Bus Type US-PM
Phase Status Attached in Orbit
Owner/State VMF/SU

Most Searched